Time,TemperatureF,DewpointF,PressureIn,WindDirection,WindDirectionDegrees,WindSpeedMPH,WindSpeedGustMPH,Humidity,HourlyPrecipIn,Conditions,Clouds,dailyrainin,SolarRadiationWatts/m^2,SoftwareType,DateUTC
2013-03-25 00:33:00,20.0,4.0,-100.00,West,278,2.0,3.0,50,-99.99,,,0.02,0.000000,,2013-03-25 06:33:00,
2013-03-25 00:42:00,20.0,4.0,-100.00,West,278,2.0,3.0,50,-99.99,,,0.02,0.000000,,2013-03-25 06:42:00,
2013-03-25 00:52:00,20.0,4.0,-100.00,West,278,2.0,3.0,50,-99.99,,,0.02,0.000000,,2013-03-25 06:52:00,
2013-03-25 01:01:00,20.0,4.0,-100.00,West,278,2.0,3.0,50,-99.99,,,0.02,0.000000,,2013-03-25 07:01:00,
2013-03-25 01:02:00,20.0,4.0,-100.00,West,261,2.0,4.0,49,0.00,,,0.02,0.000000,,2013-03-25 07:02:00,
2013-03-25 01:22:00,20.0,4.0,-100.00,West,261,2.0,4.0,49,0.00,,,0.02,0.000000,,2013-03-25 07:22:00,
2013-03-25 01:32:00,20.0,4.0,-100.00,West,261,2.0,4.0,49,0.00,,,0.02,0.000000,,2013-03-25 07:32:00,
2013-03-25 01:42:00,20.0,4.0,-100.00,West,261,2.0,4.0,49,0.00,,,0.02,0.000000,,2013-03-25 07:42:00,
2013-03-25 01:52:00,20.0,4.0,-100.00,West,261,2.0,4.0,49,0.00,,,0.02,0.000000,,2013-03-25 07:52:00,
2013-03-25 02:02:00,20.0,5.0,-100.00,West,269,2.0,4.0,51,0.00,,,0.02,0.000000,,2013-03-25 08:02:00,
2013-03-25 02:23:00,20.0,5.0,-100.00,West,269,2.0,4.0,51,0.00,,,0.02,0.000000,,2013-03-25 08:23:00,
2013-03-25 02:32:00,20.0,5.0,-100.00,West,269,2.0,4.0,51,0.00,,,0.02,0.000000,,2013-03-25 08:32:00,
2013-03-25 02:43:00,20.0,5.0,-100.00,West,269,2.0,4.0,51,0.00,,,0.02,0.000000,,2013-03-25 08:43:00,
2013-03-25 02:52:00,20.0,5.0,-100.00,West,269,2.0,4.0,51,0.00,,,0.02,0.000000,,2013-03-25 08:52:00,
2013-03-25 03:02:00,19.0,5.0,-100.00,WNW,291,2.0,3.0,53,-99.99,,,0.02,0.000000,,2013-03-25 09:02:00,
2013-03-25 03:33:00,19.0,5.0,-100.00,WNW,291,2.0,3.0,53,-99.99,,,0.02,0.000000,,2013-03-25 09:33:00,
2013-03-25 03:43:00,19.0,5.0,-100.00,WNW,291,2.0,3.0,53,-99.99,,,0.02,0.000000,,2013-03-25 09:43:00,
2013-03-25 03:52:00,19.0,5.0,-100.00,WNW,291,2.0,3.0,53,-99.99,,,0.02,0.000000,,2013-03-25 09:52:00,
2013-03-25 04:02:00,19.0,3.0,-100.00,WNW,292,2.0,3.0,50,0.00,,,0.02,0.000000,,2013-03-25 10:02:00,
2013-03-25 04:33:00,19.0,3.0,-100.00,WNW,292,2.0,3.0,50,0.00,,,0.02,0.000000,,2013-03-25 10:33:00,
2013-03-25 04:42:00,19.0,3.0,-100.00,WNW,292,2.0,3.0,50,0.00,,,0.02,0.000000,,2013-03-25 10:42:00,
2013-03-25 05:02:00,19.0,4.0,-100.00,WNW,297,3.0,4.0,51,-99.99,,,0.02,0.000000,,2013-03-25 11:02:00,
2013-03-25 05:32:00,19.0,4.0,-100.00,WNW,297,3.0,4.0,51,-99.99,,,0.02,0.000000,,2013-03-25 11:32:00,
2013-03-25 05:42:00,19.0,4.0,-100.00,WNW,297,3.0,4.0,51,-99.99,,,0.02,0.000000,,2013-03-25 11:42:00,
2013-03-25 05:52:00,19.0,4.0,-100.00,WNW,297,3.0,4.0,51,-99.99,,,0.02,0.000000,,2013-03-25 11:52:00,
2013-03-25 06:02:00,19.0,3.0,-100.00,WNW,289,2.0,3.0,50,-99.99,,,-99.99,0.000000,,2013-03-25 12:02:00,
2013-03-25 06:33:00,19.0,3.0,-100.00,WNW,289,2.0,3.0,50,-99.99,,,-99.99,0.000000,,2013-03-25 12:33:00,
2013-03-25 06:43:00,19.0,3.0,-100.00,WNW,289,2.0,3.0,50,-99.99,,,-99.99,0.000000,,2013-03-25 12:43:00,
2013-03-25 06:53:00,19.0,3.0,-100.00,WNW,289,2.0,3.0,50,-99.99,,,-99.99,0.000000,,2013-03-25 12:53:00,
2013-03-25 07:02:00,18.0,3.0,-100.00,NNW,331,1.0,3.0,52,-99.99,,,0.02,0.000000,,2013-03-25 13:02:00,
2013-03-25 07:32:00,18.0,3.0,-100.00,NNW,331,1.0,3.0,52,-99.99,,,0.02,0.000000,,2013-03-25 13:32:00,
2013-03-25 07:43:00,18.0,3.0,-100.00,NNW,331,1.0,3.0,52,-99.99,,,0.02,0.000000,,2013-03-25 13:43:00,
2013-03-25 07:52:00,18.0,3.0,-100.00,NNW,331,1.0,3.0,52,-99.99,,,0.02,0.000000,,2013-03-25 13:52:00,
2013-03-25 08:23:00,20.0,6.0,-100.00,NW,304,2.0,3.0,54,0.00,,,0.02,10.000000,,2013-03-25 14:23:00,
2013-03-25 08:32:00,20.0,6.0,-100.00,NW,304,2.0,3.0,54,0.00,,,0.02,10.000000,,2013-03-25 14:32:00,
2013-03-25 08:43:00,20.0,6.0,-100.00,NW,304,2.0,3.0,54,0.00,,,0.02,10.000000,,2013-03-25 14:43:00,
2013-03-25 08:52:00,20.0,6.0,-100.00,NW,304,2.0,3.0,54,0.00,,,0.02,10.000000,,2013-03-25 14:52:00,
2013-03-25 09:23:00,27.0,8.0,-100.00,SE,145,3.0,5.0,43,-99.99,,,-99.99,45.000000,,2013-03-25 15:23:00,
2013-03-25 09:33:00,27.0,8.0,-100.00,SE,145,3.0,5.0,43,-99.99,,,-99.99,45.000000,,2013-03-25 15:33:00,
2013-03-25 09:43:00,27.0,8.0,-100.00,SE,145,3.0,5.0,43,-99.99,,,-99.99,45.000000,,2013-03-25 15:43:00,
2013-03-25 09:53:00,27.0,8.0,-100.00,SE,145,3.0,5.0,43,-99.99,,,-99.99,45.000000,,2013-03-25 15:53:00,
2013-03-25 10:02:00,31.0,14.0,-100.00,SSE,151,3.0,5.0,49,-99.99,,,0.02,91.000000,,2013-03-25 16:02:00,
2013-03-25 10:33:00,31.0,14.0,-100.00,SSE,151,3.0,5.0,49,-99.99,,,0.02,91.000000,,2013-03-25 16:33:00,
2013-03-25 11:02:00,36.0,14.0,-100.00,SE,138,4.0,6.0,40,0.00,,,0.00,428.000000,,2013-03-25 17:02:00,
2013-03-25 11:24:00,36.0,14.0,-100.00,SE,138,4.0,6.0,40,0.00,,,0.00,428.000000,,2013-03-25 17:24:00,
2013-03-25 11:33:00,36.0,14.0,-100.00,SE,138,4.0,6.0,40,0.00,,,0.00,428.000000,,2013-03-25 17:33:00,
2013-03-25 12:02:00,38.0,15.0,-100.00,SE,139,4.0,7.0,38,0.00,,,0.00,748.000000,,2013-03-25 18:02:00,
2013-03-25 12:33:00,38.0,15.0,-100.00,SE,139,4.0,7.0,38,0.00,,,0.00,748.000000,,2013-03-25 18:33:00,
2013-03-25 12:43:00,38.0,15.0,-100.00,SE,139,4.0,7.0,38,0.00,,,0.00,748.000000,,2013-03-25 18:43:00,
2013-03-25 12:53:00,38.0,15.0,-100.00,SE,139,4.0,7.0,38,0.00,,,0.00,748.000000,,2013-03-25 18:53:00,
2013-03-25 13:02:00,41.0,17.0,-100.00,SSE,151,5.0,9.0,37,0.00,,,0.00,928.000000,,2013-03-25 19:02:00,
2013-03-25 13:33:00,41.0,17.0,-100.00,SSE,151,5.0,9.0,37,0.00,,,0.00,928.000000,,2013-03-25 19:33:00,
2013-03-25 13:43:00,41.0,17.0,-100.00,SSE,151,5.0,9.0,37,0.00,,,0.00,928.000000,,2013-03-25 19:43:00,
2013-03-25 13:52:00,41.0,17.0,-100.00,SSE,151,5.0,9.0,37,0.00,,,0.00,928.000000,,2013-03-25 19:52:00,
2013-03-25 14:02:00,42.0,16.0,-100.00,SE,137,5.0,9.0,34,0.00,,,0.00,919.000000,,2013-03-25 20:02:00,
2013-03-25 14:32:00,42.0,16.0,-100.00,SE,137,5.0,9.0,34,0.00,,,0.00,919.000000,,2013-03-25 20:32:00,
2013-03-25 14:42:00,42.0,16.0,-100.00,SE,137,5.0,9.0,34,0.00,,,0.00,919.000000,,2013-03-25 20:42:00,
2013-03-25 14:52:00,42.0,16.0,-100.00,SE,137,5.0,9.0,34,0.00,,,0.00,919.000000,,2013-03-25 20:52:00,
2013-03-25 15:02:00,44.0,17.0,-100.00,SE,130,4.0,8.0,34,0.00,,,0.00,873.000000,,2013-03-25 21:02:00,
2013-03-25 15:22:00,44.0,17.0,-100.00,SE,130,4.0,8.0,34,0.00,,,0.00,873.000000,,2013-03-25 21:22:00,
2013-03-25 15:33:00,44.0,17.0,-100.00,SE,130,4.0,8.0,34,0.00,,,0.00,873.000000,,2013-03-25 21:33:00,
2013-03-25 15:43:00,44.0,17.0,-100.00,SE,130,4.0,8.0,34,0.00,,,0.00,873.000000,,2013-03-25 21:43:00,
2013-03-25 15:52:00,44.0,17.0,-100.00,SE,130,4.0,8.0,34,0.00,,,0.00,873.000000,,2013-03-25 21:52:00,
2013-03-25 16:02:00,42.0,16.0,-100.00,ESE,109,4.0,9.0,35,0.00,,,0.00,731.000000,,2013-03-25 22:02:00,
2013-03-25 16:33:00,42.0,16.0,-100.00,ESE,109,4.0,9.0,35,0.00,,,0.00,731.000000,,2013-03-25 22:33:00,
2013-03-25 16:42:00,42.0,16.0,-100.00,ESE,109,4.0,9.0,35,0.00,,,0.00,731.000000,,2013-03-25 22:42:00,
2013-03-25 16:52:00,42.0,16.0,-100.00,ESE,109,4.0,9.0,35,0.00,,,0.00,731.000000,,2013-03-25 22:52:00,
2013-03-25 17:02:00,39.0,14.0,-100.00,ESE,105,4.0,8.0,36,0.00,,,0.00,426.000000,,2013-03-25 23:02:00,
2013-03-25 17:33:00,39.0,14.0,-100.00,ESE,105,4.0,8.0,36,0.00,,,0.00,426.000000,,2013-03-25 23:33:00,
2013-03-25 17:43:00,39.0,14.0,-100.00,ESE,105,4.0,8.0,36,0.00,,,0.00,426.000000,,2013-03-25 23:43:00,
2013-03-25 17:52:00,39.0,14.0,-100.00,ESE,105,4.0,8.0,36,0.00,,,0.00,426.000000,,2013-03-25 23:52:00,
2013-03-25 18:02:00,37.0,14.0,-100.00,NE,53,2.0,9.0,39,0.00,,,0.00,133.000000,,2013-03-26 00:02:00,
2013-03-25 18:32:00,37.0,14.0,-100.00,NE,53,2.0,9.0,39,0.00,,,0.00,133.000000,,2013-03-26 00:32:00,
2013-03-25 18:42:00,37.0,14.0,-100.00,NE,53,2.0,9.0,39,0.00,,,0.00,133.000000,,2013-03-26 00:42:00,
2013-03-25 18:52:00,37.0,14.0,-100.00,NE,53,2.0,9.0,39,0.00,,,0.00,133.000000,,2013-03-26 00:52:00,
2013-03-25 19:02:00,36.0,17.0,-100.00,East,83,1.0,4.0,45,0.00,,,0.00,96.000000,,2013-03-26 01:02:00,
2013-03-25 19:23:00,36.0,17.0,-100.00,East,83,1.0,4.0,45,0.00,,,0.00,96.000000,,2013-03-26 01:23:00,
2013-03-25 19:33:00,36.0,17.0,-100.00,East,83,1.0,4.0,45,0.00,,,0.00,96.000000,,2013-03-26 01:33:00,
2013-03-25 19:42:00,36.0,17.0,-100.00,East,83,1.0,4.0,45,0.00,,,0.00,96.000000,,2013-03-26 01:42:00,
2013-03-25 19:52:00,36.0,17.0,-100.00,East,83,1.0,4.0,45,0.00,,,0.00,96.000000,,2013-03-26 01:52:00,
2013-03-25 20:02:00,32.0,16.0,-100.00,WNW,299,2.0,3.0,51,0.00,,,0.00,34.000000,,2013-03-26 02:02:00,
2013-03-25 20:32:00,32.0,16.0,-100.00,WNW,299,2.0,3.0,51,0.00,,,0.00,34.000000,,2013-03-26 02:32:00,
2013-03-25 20:43:00,32.0,16.0,-100.00,WNW,299,2.0,3.0,51,0.00,,,0.00,34.000000,,2013-03-26 02:43:00,
2013-03-25 20:52:00,32.0,16.0,-100.00,WNW,299,2.0,3.0,51,0.00,,,0.00,34.000000,,2013-03-26 02:52:00,
2013-03-25 21:02:00,31.0,17.0,-100.00,WSW,257,1.0,4.0,56,0.00,,,0.00,0.000000,,2013-03-26 03:02:00,
2013-03-25 21:34:00,31.0,17.0,-100.00,WSW,257,1.0,4.0,56,0.00,,,0.00,0.000000,,2013-03-26 03:34:00,
2013-03-25 21:42:00,31.0,17.0,-100.00,WSW,257,1.0,4.0,56,0.00,,,0.00,0.000000,,2013-03-26 03:42:00,
2013-03-25 21:53:00,31.0,17.0,-100.00,WSW,257,1.0,4.0,56,0.00,,,0.00,0.000000,,2013-03-26 03:53:00,
2013-03-25 22:02:00,31.0,16.0,-100.00,WNW,303,2.0,2.0,53,0.00,,,0.00,0.000000,,2013-03-26 04:02:00,
2013-03-25 22:33:00,31.0,16.0,-100.00,WNW,303,2.0,2.0,53,0.00,,,0.00,0.000000,,2013-03-26 04:33:00,
2013-03-25 22:43:00,31.0,16.0,-100.00,WNW,303,2.0,2.0,53,0.00,,,0.00,0.000000,,2013-03-26 04:43:00,
2013-03-25 22:52:00,31.0,16.0,-100.00,WNW,303,2.0,2.0,53,0.00,,,0.00,0.000000,,2013-03-26 04:52:00,
2013-03-25 23:22:00,32.0,17.0,-100.00,NNW,348,1.0,2.0,54,0.00,,,0.00,0.000000,,2013-03-26 05:22:00,
2013-03-25 23:32:00,32.0,17.0,-100.00,NNW,348,1.0,2.0,54,0.00,,,0.00,0.000000,,2013-03-26 05:32:00,
2013-03-25 23:42:00,32.0,17.0,-100.00,NNW,348,1.0,2.0,54,0.00,,,0.00,0.000000,,2013-03-26 05:42:00,
2013-03-25 23:52:00,32.0,17.0,-100.00,NNW,348,1.0,2.0,54,0.00,,,0.00,0.000000,,2013-03-26 05:52:00,